dimanche 04 février 2018

Le classement original se trouve sur : www.hesbytrail.be
 
TRAIL DES CHEVREUILS - FALLAIS
DISTANCE : 19.97 km
dimanche 04 février 2018
 
Place dos NOM Catégorie Pl/cat temps temps/km Vitesse
1 142 DECKX RIK HOMME 1 01:36:39 04:50 12.40
2 673 LAFOURTE JÉRÔME HOMME 2 01:37:59 04:54 12.23
3 264 PAHOS ANDREAS HOMME 3 01:40:56 05:03 11.87
4 640 LIEVENS KRIS HOMME 4 01:41:17 05:04 11.83
5 516 SIMONET DENIS HOMME 5 01:41:46 05:06 11.78
6 45 BONGERS DIMITRI HOMME 6 01:43:53 05:12 11.54
7 495 SECONDE SACHA HOMME 7 01:43:59 05:12 11.53
8 663 KEMPENEERS CÉDRIC HOMME 8 01:44:12 05:13 11.50
9 322 LAENEN ROBIN HOMME 9 01:44:41 05:14 11.45
10 180 ROBERT YVES HOMME 10 01:46:01 05:18 11.30
11 49 BOUGHRAD MOHAMED HOMME 11 01:46:25 05:20 11.26
12 641 STICKENS JAN HOMME 12 01:48:25 05:26 11.05
13 130 DE VLEESCHAUWER DIMITRI HOMME 13 01:50:51 05:33 10.81
14 589 BOUGUIGNON ANTOINE HOMME 14 01:51:26 05:35 10.75
15 461 PLASMANNE MAXIME HOMME 15 01:53:53 05:42 10.52
16 192 PIERREUX CHARLIE HOMME 16 01:54:33 05:44 10.46
17 148 DEHOTTAY NICOLAS HOMME 17 01:55:00 05:45 10.42
18 642 BULCKENS KOEN HOMME 18 01:55:12 05:46 10.40
19 156 DELHAISE JEAN-MARTIN HOMME 19 01:56:04 05:49 10.33
20 289 HOUBART ALEXIS HOMME 20 01:56:12 05:49 10.31
21 371 MAES LAURENT HOMME 21 01:57:43 05:54 10.18
22 207 FERON OLIVIER HOMME 22 01:57:53 05:54 10.17
23 172 DERNIER ALEXANDRE HOMME 23 01:58:14 05:55 10.14
24 490 ROUSSEAU DAVID HOMME 24 01:58:39 05:56 10.10
25 473 RAES BART HOMME 25 01:59:42 06:00 10.01
26 98 MIGNON JEAN-POL HOMME 26 02:01:11 06:04 9.89
27 444 PENAY THIERRY HOMME 27 02:01:27 06:05 9.87
28 293 HUMBLET SIMON HOMME 28 02:05:47 06:18 9.53
29 476 RAHIER CLÉMENT HOMME 29 02:05:51 06:18 9.52
30 88 CLOTUCHE JEAN-CHRISTOPHE HOMME 30 02:05:52 06:18 9.52
31 104 CREMER PATRICK HOMME 31 02:06:04 06:19 9.51
32 21 BAUMANS BENOIT HOMME 32 02:06:05 06:19 9.51
33 154 DELECLUSE MARTIN HOMME 33 02:06:13 06:19 9.50
34 475 RAHIER JUSTIN HOMME 34 02:06:20 06:19 9.49
35 345 LEDUC CHARLES HOMME 35 02:06:24 06:20 9.48
36 678 NEUTELINGS THIBAULT HOMME 36 02:06:50 06:21 9.45
37 23 BAUTE BENOIT HOMME 37 02:06:51 06:21 9.45
38 348 LEONARD FILIP HOMME 38 02:07:24 06:23 9.41
39 209 FERSON NIELS HOMME 39 02:07:25 06:23 9.41
40 251 GRIGNARD ANTOINE HOMME 40 02:07:49 06:24 9.38
41 164 DEMAZY GERMAIN HOMME 41 02:08:00 06:24 9.36
42 565 VAN DE WALLE EMILIE DAME 1 02:08:53 06:27 9.30
43 184 DEWAEL YANNICK HOMME 42 02:09:04 06:28 9.29
44 397 PEETERSILLE FRÉDÉRIC HOMME 43 02:09:19 06:28 9.27
45 614 WILLEM BERNARD HOMME 44 02:09:21 06:29 9.27
46 165 DENDONCKER NICOLAS HOMME 45 02:09:26 06:29 9.26
47 239 MERCIER CATHERINE DAME 2 02:09:32 06:29 9.25
48 652 THONNARD SÉVERINE DAME 3 02:10:22 06:32 9.19
49 308 JOTTARD CHRISTOPHE HOMME 46 02:10:23 06:32 9.19
50 448 PHILIPPIN GREGORY HOMME 47 02:10:31 06:32 9.18
51 106 CROES JO HOMME 48 02:10:32 06:32 9.18
52 617 WILLEMS DIRK HOMME 49 02:10:34 06:32 9.18
53 364 LOUVIAUX CINDY DAME 4 02:10:36 06:32 9.18
54 474 RAHIER DAVID HOMME 50 02:10:37 06:32 9.18
55 623 ZEMB EDOUARD HOMME 51 02:10:40 06:33 9.17
56 502 SCHIRMER INGO HOMME 52 02:11:12 06:34 9.13
57 375 MAHAUDEN MAXIME HOMME 53 02:11:41 06:36 9.10
58 699 THOMAS XAVIER HOMME 54 02:11:53 06:36 9.09
59 670 CIMINO ARMANDO HOMME 55 02:12:19 06:37 9.06
60 661 DELHAYE MAXIME HOMME 56 02:12:23 06:38 9.05
61 527 SPINEUX ADRIEN HOMME 57 02:12:50 06:39 9.02
62 373 MAGONETTE XAVIER HOMME 58 02:12:51 06:39 9.02
63 551 TIBERGHIEN ARNAUD HOMME 59 02:12:53 06:39 9.02
64 524 SNEESSENS ALAIN HOMME 60 02:12:54 06:39 9.02
65 352 LIGOT NICOLAS HOMME 61 02:12:56 06:39 9.02
66 655 DARGENT STIVE HOMME 62 02:13:05 06:40 9.01
67 594 MOIRAND RONALD HOMME 63 02:13:07 06:40 9.00
68 433 OOSTLAND STÉPHANE HOMME 64 02:13:10 06:40 9.00
69 383 MARTINAGE LIONEL HOMME 65 02:16:52 06:51 8.76
70 103 CRANINX LUC HOMME 66 02:17:19 06:52 8.73
71 124 DE NIEL FRANK HOMME 67 02:17:24 06:53 8.72
72 60 BRIERS GEERT HOMME 68 02:18:12 06:55 8.67
73 572 VAN VOOREN DAVID HOMME 69 02:18:38 06:56 8.64
74 100 CORDIER CHRISTINE DAME 5 02:19:36 06:59 8.58
75 4 ALLEAUME CHRISTOPHE HOMME 70 02:20:20 07:02 8.54
76 194 DUFRESNOY CHRISTOPHE HOMME 71 02:20:26 07:02 8.53
77 97 CONSTANT JONATHAN HOMME 72 02:20:44 07:03 8.52
78 601 VRANCKX WALTER HOMME 73 02:21:01 07:04 8.50
79 547 THIRY SAMUEL HOMME 74 02:21:07 07:04 8.49
80 169 DEPIREUX NATHALIE DAME 6 02:21:14 07:04 8.49
81 455 PIRE ARNAUD HOMME 75 02:21:15 07:04 8.48
82 358 LOMBART AUGUSTIN HOMME 76 02:21:34 07:05 8.47
83 197 DUMONT BERNARD HOMME 77 02:21:40 07:06 8.46
84 602 VROLIX LUC HOMME 78 02:21:41 07:06 8.46
85 522 SMITS DAVID HOMME 79 02:21:49 07:06 8.45
86 384 MARTINAUX JEAN-CHARLES HOMME 80 02:22:00 07:07 8.44
87 2 ALAERTS GILLES HOMME 81 02:22:01 07:07 8.44
88 152 DELATTRE LAURENT HOMME 82 02:22:03 07:07 8.44
89 674 LECOMTE PAULINE DAME 7 02:22:15 07:07 8.43
90 598 VINCKEN ALAIN HOMME 83 02:22:34 07:08 8.41
91 599 VLEMINCKX ANDY HOMME 84 02:22:34 07:08 8.41
92 571 VAN LOY JAN HOMME 85 02:22:37 07:08 8.40
93 155 DELENS FRÉDÉRIC HOMME 86 02:22:55 07:09 8.39
94 417 NDAYIRAGIJE OLIVIER HOMME 87 02:23:20 07:11 8.36
95 116 DE BROUWER SERGE HOMME 88 02:23:48 07:12 8.33
96 534 STIJNEN GUY HOMME 89 02:25:48 07:18 8.22
97 590 VASSEN ANTOINE HOMME 90 02:25:57 07:18 8.21
98 299 JACOBS FABIEN HOMME 91 02:26:06 07:19 8.20
99 677 STAINIER ERIC HOMME 92 02:26:24 07:20 8.19
100 66 BURTON NATHALIE DAME 8 02:26:32 07:20 8.18
101 248 GORIS YVES HOMME 93 02:26:34 07:20 8.18
102 171 SIBOURG MARC HOMME 94 02:27:08 07:22 8.15
103 355 LOFORTE ROSARIO HOMME 95 02:27:09 07:22 8.14
104 221 FREYMAN MAXIM HOMME 96 02:27:21 07:23 8.13
105 212 FÖLDESI DAVID HOMME 97 02:27:23 07:23 8.13
106 37 BERTULOT JEROME HOMME 98 02:27:25 07:23 8.13
107 285 HEYMANS CHRISTOPHE HOMME 99 02:27:29 07:23 8.13
108 38 BEUN MAGALI DAME 9 02:27:31 07:23 8.12
109 51 BOURGARD GRÉGORY HOMME 100 02:27:45 07:24 8.11
110 202 EGGERICKX KOEN HOMME 101 02:28:09 07:25 8.09
111 42 BODART OLIVIER HOMME 102 02:28:13 07:25 8.09
112 136 DEBOUNY FABIAN HOMME 103 02:29:06 07:28 8.04
113 128 DE VADDER HILDE DAME 10 02:29:15 07:28 8.03
114 129 DE VADDER TINNE DAME 11 02:29:25 07:29 8.02
115 121 DE GREEF PATRICK HOMME 104 02:30:31 07:32 7.96
116 159 DELOBBE MARIE DAME 12 02:30:59 07:34 7.94
117 597 VIJVERMAN CHRISTOPHE HOMME 105 02:31:05 07:34 7.93
118 680 LEGROS PASCAL HOMME 106 02:31:06 07:34 7.93
119 201 EGGERICKX WILLEM HOMME 107 02:31:07 07:34 7.93
120 654 PLANTIN-CARRENARD BRUNO HOMME 108 02:31:09 07:34 7.93
121 260 HANQUET YVES HOMME 109 02:31:11 07:34 7.93
122 405 MICHEL ADRIEN HOMME 110 02:31:23 07:35 7.92
123 492 RUPPRECHT MICHAEL HOMME 111 02:31:25 07:35 7.91
124 140 DEBROUX DOUGLAS HOMME 112 02:31:31 07:35 7.91
125 91 COLLIGNON THOMAS HOMME 113 02:31:35 07:35 7.91
126 226 GAVA BRUNO HOMME 114 02:31:36 07:35 7.91
127 447 PERROT EMILE HOMME 115 02:31:39 07:36 7.90
128 300 JACOBS TEDDY HOMME 116 02:31:42 07:36 7.90
129 298 JACOB NICOLAS HOMME 117 02:32:00 07:37 7.88
130 557 TOUSSAINT VALÉRIE DAME 13 02:32:17 07:37 7.87
131 93 COLLIN MATHIEU HOMME 118 02:32:20 07:38 7.87
132 110 DANIEL ALAIN HOMME 119 02:32:26 07:38 7.86
133 611 WEYKMANS SÉBASTIEN HOMME 120 02:32:43 07:39 7.85
134 544 THEATRE JEAN-BENOIT HOMME 121 02:32:45 07:39 7.85
135 662 DUMONT GUILLAUME HOMME 122 02:33:04 07:40 7.83
136 327 LAMBERT SÉBASTIEN HOMME 123 02:33:07 07:40 7.83
137 477 RASKIN LUDOVIC HOMME 124 02:33:15 07:40 7.82
138 189 DORVAL MARTIN HOMME 125 02:36:55 07:51 7.64
139 232 GHEURY PHILIPPE HOMME 126 02:37:26 07:53 7.61
140 416 NAMOTTE PHILIPPE HOMME 127 02:37:28 07:53 7.61
141 263 HAULOTTE OLIVIER HOMME 128 02:37:33 07:53 7.61
142 499 SCHARPE CHARLES HOMME 129 02:37:36 07:53 7.60
143 469 QUINTIN JEAN-JACQUES HOMME 130 02:37:39 07:54 7.60
144 380 MARLOYE LUC HOMME 131 02:37:40 07:54 7.60
145 424 NOEL HERVE HOMME 132 02:37:43 07:54 7.60
146 596 VICKEVORTS LUC HOMME 133 02:37:52 07:54 7.59
147 55 BOXUS JEAN-BENOIT HOMME 134 02:38:08 07:55 7.58
148 457 PIRON VINCENT HOMME 135 02:39:26 07:59 7.52
149 478 RASQUIN VINCENT HOMME 136 02:39:27 07:59 7.52
150 362 LORENT JEAN-CLAUDE HOMME 137 02:40:30 08:02 7.47
151 485 ROBERT TANGUY HOMME 138 02:40:48 08:03 7.45
152 465 POLLART JEAN-FRANÇOIS HOMME 139 02:40:55 08:03 7.45
153 99 COPPENS ALAIN HOMME 140 02:41:07 08:04 7.44
154 570 VAN LOMMEL SWAT HOMME 141 02:41:50 08:06 7.41
155 249 GORIS RIK HOMME 142 02:41:52 08:06 7.40
156 277 HENROTEAUX DANIEL HOMME 143 02:41:55 08:06 7.40
157 339 HASTIR FLORE DAME 14 02:41:58 08:07 7.40
158 261 HARDY MATHIEU HOMME 144 02:42:22 08:08 7.38
159 62 BRUMAGNE JERRY HOMME 145 02:42:33 08:08 7.37
160 307 JOSEPH ELIOTT HOMME 146 02:43:21 08:11 7.34
161 323 LAFOSSE JONATHAN HOMME 147 02:44:31 08:14 7.28
162 223 FUMAL JULIEN HOMME 148 02:44:32 08:14 7.28
163 550 THONON MARIE-PIERRE DAME 15 02:45:01 08:16 7.26
164 321 KRUYTS KEO HOMME 149 02:45:52 08:18 7.23
165 330 LANCKSWEERT CHRISTIAN HOMME 150 02:46:03 08:19 7.22
166 542 TEKEM CHRISTIAN HOMME 151 02:46:12 08:19 7.21
167 123 DE NEEF LIONEL HOMME 152 02:46:13 08:19 7.21
168 256 GRZESINSKI PATRICIA DAME 16 02:46:15 08:19 7.21
169 580 VANDERMISSEN PATRICIA DAME 17 02:46:17 08:19 7.21
170 537 SYDOR GUY HOMME 153 02:46:27 08:20 7.20
171 331 LANDRIE ISABELLE DAME 18 02:46:44 08:21 7.19
172 624 KINDERMANS RENDY HOMME 154 02:46:50 08:21 7.18
173 625 DUCHATEAU RENÉ HOMME 155 02:46:51 08:21 7.18
174 134 DEBAVAY JEAN-CHRISTOPHE HOMME 156 02:47:14 08:22 7.17
175 253 GRUIELLE YANNICK HOMME 157 02:47:15 08:22 7.17
176 257 GUILLAUME JEAN HOMME 158 02:47:17 08:22 7.16
177 428 NYS JULIE DAME 19 02:47:52 08:24 7.14
178 41 BLANPAIN BENOIT HOMME 159 02:48:11 08:25 7.13
179 531 STEENACKERS NICK HOMME 160 02:48:56 08:27 7.09
180 259 GYSEN STIJN HOMME 161 02:48:58 08:28 7.09
181 400 MERTENS JIMMY HOMME 162 02:49:00 08:28 7.09
182 419 NEMANN BRUNO HOMME 163 02:49:03 08:28 7.09
183 423 NOEL MATTHIAS HOMME 164 02:49:34 08:29 7.07
184 592 VERELLEN BART HOMME 165 02:49:38 08:30 7.07
185 75 CASTAGNETTI AURORE DAME 20 02:49:44 08:30 7.06
186 76 CASTERMAN PIERRE-YVES HOMME 166 02:49:46 08:30 7.06
187 328 LAMBRECHTS PATRICIA DAME 21 02:49:49 08:30 7.06
188 349 LEROY STÉPHANIE DAME 22 02:50:07 08:31 7.04
189 443 PENAY ERIC HOMME 167 02:50:53 08:33 7.01
190 301 JACQUES LIONEL HOMME 168 02:51:10 08:34 7.00
191 486 ROCCA JONATHAN HOMME 169 02:51:15 08:34 7.00
192 59 BRIEN OLIVIER HOMME 170 02:52:22 08:38 6.95
193 243 GOBERT DAVID HOMME 171 02:53:30 08:41 6.91
194 199 DUSPEAUX FABIENNE DAME 23 02:53:52 08:42 6.89
195 166 DENIS NATHALIE DAME 24 02:54:23 08:44 6.87
196 242 GOBERT ANNE DAME 25 02:54:25 08:44 6.87
197 347 LENCLU PAULIN HOMME 172 02:54:47 08:45 6.86
198 132 DE VOLDER MARIO HOMME 173 02:54:53 08:45 6.85
199 337 LEBACQ MARC HOMME 174 02:54:59 08:46 6.85
200 11 AUQUIER HERVÉ HOMME 175 02:55:26 08:47 6.83
201 14 BALLESTERO JEAN PIERRE HOMME 176 02:55:40 08:48 6.82
202 658 MARTIN GÉRARD HOMME 177 02:55:55 08:48 6.81
203 376 MALACHE CÉDRIC HOMME 178 02:56:11 08:49 6.80
204 549 THOMAS VALÉRIE DAME 26 02:56:13 08:49 6.80
205 50 BOULANGER SERGE HOMME 179 02:56:27 08:50 6.79
206 643 DOYEN MARIE-JEANNE DAME 27 02:56:35 08:50 6.79
207 34 BERSANELLI ADRIANO HOMME 180 02:56:40 08:51 6.78
208 292 HUCORNE SANDRINE DAME 28 02:56:52 08:51 6.78
209 595 VESCERA TERESA DAME 29 02:57:25 08:53 6.76
210 407 MOLLE JEAN-LOUIS HOMME 181 02:57:26 08:53 6.75
211 454 PIRAUX ADELIN HOMME 182 02:58:33 08:56 6.71
212 613 WILLEM FABRICE HOMME 183 02:58:35 08:56 6.71
213 281 HERMAN SYLVIANE DAME 30 02:59:37 09:00 6.67
214 610 WERY MICHEL HOMME 184 02:59:38 09:00 6.67
215 342 LECOMTE BENOIT HOMME 185 02:59:54 09:00 6.66
216 78 CHABOT EDDY HOMME 186 02:59:55 09:00 6.66
217 46 BOSMANS LINN DAME 31 03:01:16 09:04 6.61
218 210 FLERES DAVID HOMME 187 03:02:04 09:07 6.58
219 282 HERMANS RÉGINE DAME 32 03:02:46 09:09 6.56
220 452 PIETTE AMANDINE DAME 33 03:02:49 09:09 6.56
221 584 VANDROOGENBROECK STÉPHANE HOMME 188 03:02:53 09:09 6.55
222 267 HELLEPUTTE BÉNÉDICTE DAME 34 03:02:55 09:09 6.55
223 149 DELACENSERIE CARINE DAME 35 03:03:16 09:11 6.54
224 369 MACTELLINCK ANDRÉ HOMME 189 03:03:51 09:12 6.52
225 77 CATOUL GERALD HOMME 190 03:04:31 09:14 6.50
226 170 DEPREZ HERVÉ HOMME 191 03:04:45 09:15 6.49
227 135 DEBBAUT CHRISTINE DAME 36 03:05:34 09:17 6.46
228 506 SCUTENAIRE OLIVIER HOMME 192 03:06:30 09:20 6.43
229 415 NADIN BARBARA DAME 37 03:08:13 09:25 6.37
230 558 TYCHON EMMANUEL HOMME 193 03:08:14 09:25 6.37
231 504 SCHOLTEN STÉPHANIE DAME 38 03:08:49 09:27 6.35
232 408 MOREAU CHRISTOPHE HOMME 194 03:09:26 09:29 6.33
233 18 BASSIBEI LAURENCE DAME 39 03:09:27 09:29 6.33
234 390 MASY HENRI HOMME 195 03:11:21 09:35 6.26
235 460 PLASMAN PIERRE HOMME 196 03:11:29 09:35 6.26
236 403 MEURICE ISABELLE DAME 40 03:12:35 09:38 6.22
237 381 MARQUET GENE DAME 41 03:12:53 09:39 6.21
238 224 FUNCKEN FRANÇOISE DAME 42 03:12:55 09:39 6.21
239 472 RADERMECKER IRÈNE DAME 43 03:12:57 09:40 6.21
240 33 BERLIÈRE SOPHIE DAME 44 03:12:58 09:40 6.21
241 462 POCH ANTOINE HOMME 197 03:13:37 09:42 6.19
242 575 VANBEVER LISE DAME 45 03:15:11 09:46 6.14
243 28 BÉARELLE SARAH DAME 46 03:19:05 09:58 6.02
244 398 MEINERTZHAGEN LIONEL HOMME 198 03:19:06 09:58 6.02
245 667 DEMOULIN SYLVIA DAME 47 03:21:01 10:04 5.96
246 240 GLAUTIER FRANÇOISE DAME 48 03:21:03 10:04 5.96
247 648 JAMSIN FRÉDÉRIC HOMME 199 03:23:20 10:11 5.89
248 95 COLLIN DENIS HOMME 200 03:24:53 10:15 5.85
249 338 LECHANTRE SYLVETTE DAME 49 03:25:15 10:17 5.84
250 29 BECK JACQUES HOMME 201 03:25:18 10:17 5.84
251 539 TANASE ARIELLE DAME 50 03:25:20 10:17 5.84
252 425 NOEL FRANCE DAME 51 03:25:44 10:18 5.83
253 482 RIBAUVILLE NATHALIE DAME 52 03:25:46 10:18 5.82
254 382 MARTIN FLORENCE DAME 53 03:26:08 10:19 5.81
255 113 DE BAUYN VALÉRY HOMME 202 03:26:45 10:21 5.80
256 600 VOS CLAIRE DAME 54 03:26:57 10:22 5.79
257 530 STASSE JEAN-PIERRE HOMME 203 03:26:59 10:22 5.79
258 112 DARTEVELLE JEAN-CHRISTOPHE HOMME 204 03:30:43 10:33 5.69
259 173 DEROECK ANDY HOMME 205 03:35:06 10:46 5.57
260 233 GHISLAIN SYLVIE DAME 55 03:35:56 10:49 5.55
261 280 HERKENNE NATHALIE DAME 56 03:44:31 11:14 5.34
262 279 HERKENNE AURÉLIE DAME 57 03:44:33 11:15 5.34
263 559 URBAIN PASCALE DAME 58 03:44:35 11:15 5.34
264 483 RICHARD CÉCILE DAME 59 03:44:36 11:15 5.34
265 396 MATHONET VERONIQUE DAME 60 03:45:56 11:19 5.30
266 660 FEKEKE CAROLINE DAME 61 03:45:56 11:19 5.30
267 64 BUONAVOGLIA MARYLÈNE DAME 62 03:46:32 11:20 5.29
268 185 DEWILDE CLAIRE DAME 63 03:57:17 11:53 5.05